When you browse on this site, cookies collect data to enhance your experience and personalize the content and advertising you see.
Visit our Privacy Policy to learn more. By continuing to use the site, you agree to this use of cookies and data.
  • Em Portugal
  • Lista de países
  • Para 7 dias
  • Temperatura da água
  • Mapas de satélite
  • Mapa do tempo
  • Widgets de tempo
  • user-avatar
    Iniciar Sessão

    Previsão horária em Vilnius

    Hoje, 25 Março, Segunda-feira

    Tempo Temperatura Precipitação Vento Pressão Humidade
    00:00 +2°C° 0 mm 2 m/s 748 mmHg 74%
    01:00 +1°C° 0 mm 2 m/s 748 mmHg 77%
    02:00 +1°C° 0 mm 2 m/s 747 mmHg 79%
    03:00 +1°C° 0 mm 2 m/s 747 mmHg 81%
    04:00 -1°C° 0 mm 2 m/s 747 mmHg 83%
    05:00 -1°C° 0 mm 2 m/s 746 mmHg 85%
    06:00 -1°C° 0 mm 2 m/s 746 mmHg 82%
    07:00 +1°C° 0 mm 2 m/s 745 mmHg 80%
    08:00 +1°C° 0 mm 2 m/s 745 mmHg 77%
    09:00 +2°C° 0 mm 3 m/s 745 mmHg 71%
    10:00 +3°C° 0 mm 3 m/s 744 mmHg 66%
    11:00 +5°C° 0 mm 3 m/s 744 mmHg 60%
    12:00 +5°C° 0.1 mm 3 m/s 744 mmHg 56%
    13:00 +7°C° 0.1 mm 3 m/s 744 mmHg 53%
    14:00 +7°C° 0.1 mm 3 m/s 743 mmHg 50%
    15:00 +7°C° 0.2 mm 3 m/s 743 mmHg 52%
    16:00 +7°C° 0.2 mm 3 m/s 743 mmHg 54%
    17:00 +5°C° 0.2 mm 3 m/s 743 mmHg 56%
    18:00 +4°C° 0.1 mm 3 m/s 743 mmHg 62%
    19:00 +4°C° 0.1 mm 2 m/s 743 mmHg 68%
    20:00 +3°C° 0.1 mm 2 m/s 743 mmHg 75%
    21:00 +3°C° 0 mm 2 m/s 744 mmHg 77%
    22:00 +1°C° 0 mm 3 m/s 744 mmHg 80%
    23:00 +1°C° 0 mm 3 m/s 744 mmHg 82%

    Amanhã, 26 Março, Terça-feira

    Tempo Temperatura Precipitação Vento Pressão Humidade
    00:00 0°C° 0 mm 4 m/s 744 mmHg 80%
    01:00 -1°C° 0 mm 4 m/s 745 mmHg 77%
    02:00 -1°C° 0 mm 5 m/s 745 mmHg 75%
    03:00 -2°C° 0 mm 4 m/s 745 mmHg 77%
    04:00 -3°C° 0 mm 4 m/s 746 mmHg 80%
    05:00 -4°C° 0 mm 4 m/s 746 mmHg 82%
    06:00 -3°C° 0 mm 4 m/s 746 mmHg 78%
    07:00 -3°C° 0 mm 4 m/s 746 mmHg 73%
    08:00 -2°C° 0 mm 5 m/s 746 mmHg 69%
    09:00 -2°C° 0.3 mm 5 m/s 746 mmHg 71%
    10:00 -1°C° 0.3 mm 5 m/s 746 mmHg 74%
    11:00 -2°C° 0.3 mm 6 m/s 746 mmHg 76%
    12:00 -1°C° 0.3 mm 6 m/s 745 mmHg 67%
    13:00 +1°C° 0.3 mm 5 m/s 745 mmHg 58%
    14:00 +2°C° 0.3 mm 5 m/s 745 mmHg 48%
    15:00 +2°C° 0.2 mm 5 m/s 744 mmHg 55%
    16:00 +1°C° 0.2 mm 4 m/s 744 mmHg 61%
    17:00 0°C° 0.2 mm 4 m/s 744 mmHg 67%
    18:00 0°C° 0.5 mm 4 m/s 745 mmHg 75%
    19:00 -1°C° 0.5 mm 5 m/s 745 mmHg 82%
    20:00 -2°C° 0.5 mm 5 m/s 746 mmHg 89%
    21:00 -2°C° 0.3 mm 5 m/s 746 mmHg 87%
    22:00 -2°C° 0.3 mm 5 m/s 747 mmHg 85%
    23:00 -4°C° 0.3 mm 5 m/s 748 mmHg 84%

    Depois de amanhã, 27 Março, Quarta-feira

    Tempo Temperatura Precipitação Vento Pressão Humidade
    00:00 -3°C° 0 mm 4 m/s 749 mmHg 86%
    01:00 -4°C° 0 mm 4 m/s 749 mmHg 88%
    02:00 -5°C° 0 mm 4 m/s 750 mmHg 91%
    03:00 -5°C° 0 mm 3 m/s 751 mmHg 91%
    04:00 -6°C° 0 mm 3 m/s 751 mmHg 91%
    05:00 -6°C° 0 mm 3 m/s 752 mmHg 92%
    06:00 -5°C° 0 mm 3 m/s 753 mmHg 88%
    07:00 -5°C° 0 mm 3 m/s 753 mmHg 84%
    08:00 -4°C° 0 mm 3 m/s 754 mmHg 79%
    09:00 -2°C° 0 mm 3 m/s 754 mmHg 72%
    10:00 0°C° 0 mm 3 m/s 755 mmHg 65%
    11:00 +1°C° 0 mm 3 m/s 755 mmHg 58%
    12:00 +2°C° 0 mm 3 m/s 755 mmHg 55%
    13:00 +2°C° 0 mm 3 m/s 755 mmHg 52%
    14:00 +3°C° 0 mm 4 m/s 756 mmHg 49%
    15:00 +3°C° 0 mm 3 m/s 756 mmHg 50%
    16:00 +3°C° 0 mm 3 m/s 756 mmHg 52%
    17:00 +3°C° 0 mm 3 m/s 756 mmHg 53%
    18:00 +2°C° 0 mm 2 m/s 756 mmHg 59%
    19:00 +2°C° 0 mm 1 m/s 757 mmHg 66%
    20:00 -1°C° 0 mm 0 m/s 757 mmHg 72%
    21:00 -1°C° 0 mm 0 m/s 757 mmHg 73%
    22:00 -1°C° 0 mm 0 m/s 758 mmHg 73%
    23:00 -1°C° 0 mm 0 m/s 758 mmHg 73%

    28 Março, Quinta-feira

    Tempo Temperatura Precipitação Vento Pressão Humidade
    00:00 0°C° 0 mm 1 m/s 758 mmHg 74%
    01:00 0°C° 0 mm 1 m/s 759 mmHg 74%
    02:00 0°C° 0 mm 1 m/s 759 mmHg 74%
    03:00 0°C° 0 mm 1 m/s 759 mmHg 75%
    04:00 0°C° 0 mm 1 m/s 759 mmHg 76%
    05:00 0°C° 0 mm 1 m/s 759 mmHg 77%
    06:00 +1°C° 0 mm 1 m/s 760 mmHg 74%
    07:00 +2°C° 0 mm 1 m/s 760 mmHg 71%
    08:00 +3°C° 0 mm 1 m/s 760 mmHg 68%
    09:00 +4°C° 0 mm 1 m/s 760 mmHg 64%
    10:00 +6°C° 0 mm 1 m/s 761 mmHg 60%
    11:00 +8°C° 0 mm 1 m/s 761 mmHg 56%
    12:00 +7°C° 0 mm 2 m/s 761 mmHg 57%
    13:00 +8°C° 0 mm 2 m/s 761 mmHg 58%
    14:00 +9°C° 0 mm 2 m/s 761 mmHg 59%
    15:00 +8°C° 0 mm 2 m/s 761 mmHg 64%
    16:00 +7°C° 0 mm 2 m/s 761 mmHg 70%
    17:00 +7°C° 0 mm 2 m/s 761 mmHg 75%
    18:00 +6°C° 0 mm 2 m/s 761 mmHg 80%
    19:00 +4°C° 0 mm 2 m/s 761 mmHg 86%
    20:00 +3°C° 0 mm 2 m/s 761 mmHg 91%
    21:00 +3°C° 0 mm 2 m/s 761 mmHg 91%
    22:00 +2°C° 0 mm 2 m/s 761 mmHg 92%
    23:00 +2°C° 0 mm 2 m/s 761 mmHg 92%

    29 Março, Sexta-feira

    Tempo Temperatura Precipitação Vento Pressão Humidade
    00:00 +2°C° 0 mm 2 m/s 761 mmHg 92%
    01:00 +2°C° 0 mm 2 m/s 761 mmHg 93%
    02:00 +1°C° 0 mm 2 m/s 761 mmHg 93%
    03:00 +1°C° 0 mm 2 m/s 761 mmHg 94%
    04:00 +1°C° 0 mm 2 m/s 761 mmHg 94%
    05:00 +1°C° 0 mm 2 m/s 761 mmHg 95%
    06:00 +2°C° 0 mm 2 m/s 761 mmHg 93%
    07:00 +3°C° 0 mm 2 m/s 761 mmHg 92%
    08:00 +3°C° 0 mm 2 m/s 761 mmHg 90%
    09:00 +5°C° 0 mm 2 m/s 761 mmHg 84%
    10:00 +7°C° 0 mm 3 m/s 761 mmHg 77%
    11:00 +9°C° 0 mm 3 m/s 761 mmHg 70%
    12:00 +10°C° 0 mm 3 m/s 760 mmHg 66%
    13:00 +11°C° 0 mm 3 m/s 760 mmHg 62%
    14:00 +11°C° 0 mm 4 m/s 759 mmHg 58%
    15:00 +11°C° 0 mm 3 m/s 759 mmHg 60%
    16:00 +11°C° 0 mm 3 m/s 758 mmHg 62%
    17:00 +11°C° 0 mm 3 m/s 758 mmHg 64%
    18:00 +10°C° 0 mm 3 m/s 758 mmHg 70%
    19:00 +8°C° 0 mm 2 m/s 757 mmHg 77%
    20:00 +7°C° 0 mm 2 m/s 757 mmHg 84%
    21:00 +6°C° 0 mm 2 m/s 757 mmHg 86%
    22:00 +5°C° 0 mm 2 m/s 757 mmHg 89%
    23:00 +5°C° 0 mm 2 m/s 757 mmHg 91%

    30 Março, Sábado

    Tempo Temperatura Precipitação Vento Pressão Humidade
    00:00 +5°C° 0 mm 2 m/s 757 mmHg 91%
    01:00 +4°C° 0 mm 2 m/s 757 mmHg 92%
    02:00 +3°C° 0 mm 3 m/s 756 mmHg 93%
    03:00 +3°C° 0 mm 3 m/s 756 mmHg 93%
    04:00 +3°C° 0 mm 3 m/s 756 mmHg 93%
    05:00 +2°C° 0 mm 3 m/s 755 mmHg 94%
    06:00 +3°C° 0 mm 3 m/s 755 mmHg 90%
    07:00 +4°C° 0 mm 4 m/s 755 mmHg 87%
    08:00 +5°C° 0 mm 4 m/s 755 mmHg 83%
    09:00 +6°C° 0 mm 4 m/s 754 mmHg 78%
    10:00 +7°C° 0 mm 5 m/s 754 mmHg 73%
    11:00 +9°C° 0 mm 5 m/s 754 mmHg 67%
    12:00 +9°C° 0 mm 5 m/s 753 mmHg 68%
    13:00 +9°C° 0 mm 5 m/s 753 mmHg 68%
    14:00 +9°C° 0 mm 5 m/s 752 mmHg 68%
    15:00 +9°C° 0 mm 5 m/s 752 mmHg 67%
    16:00 +10°C° 0 mm 5 m/s 751 mmHg 66%
    17:00 +10°C° 0 mm 5 m/s 751 mmHg 65%
    18:00 +10°C° 0 mm 4 m/s 751 mmHg 67%
    19:00 +8°C° 0 mm 4 m/s 750 mmHg 69%
    20:00 +9°C° 0 mm 3 m/s 750 mmHg 71%
    21:00 +8°C° 0 mm 3 m/s 750 mmHg 76%
    22:00 +7°C° 0 mm 3 m/s 749 mmHg 81%
    23:00 +5°C° 0 mm 3 m/s 749 mmHg 87%
    Mostrar mais